Погода в Эльбасане

Албания     41°06′37″N   20°04′58″E
темп.,
°C
ветер,
м/с
пор.,
м/с
влажн.,
%
обл.,
%
осадки,
мм/ч
давл.,
гПа
погр.,
м
2 декабря, чт
чт201:00+5в22716 0.0 101622
04:00+7в226445 0.0 101433
07:00+7в226976 0.0 101318
10:00+11вюв126463 0.0 1013207
13:00+13ю476091 0.0 10101069
16:00+11юв227170 0.0 100922
19:00+9в337394 0.0 100938
22:00+10вюв2371100 0.0 100952
3 декабря, пт
пт301:00+11вюв2379100 0.2 100848
04:00+10вюв2279100 0.4 100740
07:00+10вюв337994 0.6 100738
10:00+14ююв41063100 0.0 10071210
13:00+16ю61159100 0.3 10061424
16:00+13юв2266100 0.3 100524
19:00+12вюв3369100 0.5 100649
22:00+11в2275100 0.1 100740
4 декабря, сб
сб401:00+11с1181100 0.5 100724
04:00+10в3386100 1.3 100683
07:00+10всв228351 2.1 100831
10:00+14в12632 0.0 1009469
13:00+14з22639 0.3 1009840
16:00+12сз11773 0.1 101013
19:00+10ююз01835 0.1 101110
22:00+10юв118664 0.0 101222
5 декабря, вс
вс501:00+10вюв118570 0.0 101220
04:00+10ююв118246 0.0 101217
07:00+10вюв227999 0.1 101121
10:00+12вюв016776 0.0 1011234
13:00+12юв1271100 0.0 1008101
16:00+12ююв2275100 0.1 100741
19:00+11ююв1282100 0.5 100761
22:00+10в2393100 2.9 1006124
6 декабря, пн
пн601:00+10в1294100 14.1 100591
04:00+10зюз4998100 4.3 1005665
07:00+9ююз1194100 6.6 100790
10:00+9ююз1192100 2.5 100996
13:00+12юз357487 6.4 1009749
16:00+9ююз0086100 3.5 101011
19:00+9всв2283100 3.8 101116
22:00+9в1179100 0.0 101114